• In Uzbekistan
  • List of Countries
  • For 7 days
  • Water Temperature
  • Satellite Maps
  • Weather Map
  • Weather Widgets
  • user-avatar
    Login

    Hourly Weather Salawaj

    Today, 25 September, Tuesday

    Time Temperature Precipitation Wind Pressure Humidity
    00:00 +23°C° 0.2 mm 0 mps 742 mmHg 93%
    01:00 +23°C° 0 mm 0 mps 742 mmHg 93%
    02:00 +23°C° 0.3 mm 0 mps 741 mmHg 94%
    03:00 +23°C° 0.3 mm 0 mps 741 mmHg 94%
    04:00 +23°C° 0.3 mm 0 mps 741 mmHg 95%
    05:00 +23°C° 0.1 mm 0 mps 741 mmHg 93%
    06:00 +24°C° 0.1 mm 0 mps 742 mmHg 91%
    07:00 +25°C° 0 mm 0 mps 742 mmHg 87%
    08:00 +27°C° 0 mm 0 mps 742 mmHg 78%
    09:00 +29°C° 0 mm 0 mps 742 mmHg 69%
    10:00 +34°C° 0 mm 1 mps 742 mmHg 60%
    11:00 +34°C° 0.7 mm 1 mps 741 mmHg 61%
    12:00 +34°C° 0.7 mm 1 mps 741 mmHg 63%
    13:00 +33°C° 0 mm 1 mps 741 mmHg 67%
    14:00 +33°C° 0.1 mm 1 mps 740 mmHg 66%
    15:00 +33°C° 0.1 mm 1 mps 739 mmHg 64%
    16:00 +33°C° 0.1 mm 1 mps 739 mmHg 63%
    17:00 +31°C° 0.1 mm 1 mps 739 mmHg 71%
    18:00 +27°C° 0.1 mm 0 mps 739 mmHg 80%
    19:00 +25°C° 0 mm 0 mps 739 mmHg 89%
    20:00 +25°C° 0 mm 0 mps 740 mmHg 90%
    21:00 +25°C° 0 mm 0 mps 740 mmHg 91%
    22:00 +24°C° 0 mm 0 mps 741 mmHg 93%
    23:00 +24°C° 0 mm 0 mps 741 mmHg 93%

    Tomorrow, 26 September, Wednesday

    Time Temperature Precipitation Wind Pressure Humidity
    00:00 +24°C° 0 mm 0 mps 741 mmHg 94%
    01:00 +24°C° 0 mm 0 mps 741 mmHg 94%
    02:00 +23°C° 0 mm 0 mps 741 mmHg 95%
    03:00 +23°C° 0 mm 0 mps 740 mmHg 95%
    04:00 +23°C° 0 mm 0 mps 740 mmHg 95%
    05:00 +24°C° 0 mm 0 mps 741 mmHg 93%
    06:00 +24°C° 0 mm 0 mps 741 mmHg 90%
    07:00 +25°C° 0 mm 0 mps 741 mmHg 88%
    08:00 +28°C° 0 mm 0 mps 741 mmHg 77%
    09:00 +30°C° 0 mm 0 mps 741 mmHg 66%
    10:00 +34°C° 0 mm 1 mps 742 mmHg 55%
    11:00 +35°C° 0 mm 1 mps 741 mmHg 54%
    12:00 +35°C° 0 mm 1 mps 740 mmHg 52%
    13:00 +36°C° 0 mm 1 mps 740 mmHg 50%
    14:00 +35°C° 0.1 mm 1 mps 739 mmHg 53%
    15:00 +35°C° 0.1 mm 1 mps 739 mmHg 55%
    16:00 +35°C° 0.1 mm 1 mps 738 mmHg 58%
    17:00 +33°C° 0.4 mm 1 mps 738 mmHg 66%
    18:00 +28°C° 0.4 mm 0 mps 739 mmHg 74%
    19:00 +26°C° 0.4 mm 0 mps 739 mmHg 82%
    20:00 +26°C° 0.2 mm 0 mps 739 mmHg 84%
    21:00 +26°C° 0.2 mm 0 mps 740 mmHg 85%
    22:00 +25°C° 0.2 mm 0 mps 741 mmHg 87%
    23:00 +25°C° 0.5 mm 0 mps 741 mmHg 88%

    Day after tomorrow, 27 September, Thursday

    Time Temperature Precipitation Wind Pressure Humidity
    00:00 +25°C° 0.5 mm 0 mps 740 mmHg 89%
    01:00 +24°C° 0.5 mm 0 mps 740 mmHg 90%
    02:00 +24°C° 0.6 mm 0 mps 740 mmHg 91%
    03:00 +24°C° 0.6 mm 0 mps 740 mmHg 92%
    04:00 +24°C° 0.6 mm 0 mps 740 mmHg 93%
    05:00 +24°C° 0.2 mm 0 mps 740 mmHg 91%
    06:00 +25°C° 0.2 mm 0 mps 740 mmHg 89%
    07:00 +26°C° 0.2 mm 0 mps 741 mmHg 87%
    08:00 +28°C° 0.5 mm 0 mps 741 mmHg 77%
    09:00 +31°C° 0.5 mm 0 mps 741 mmHg 68%
    10:00 +33°C° 0.5 mm 0 mps 741 mmHg 59%
    11:00 +33°C° 1.2 mm 0 mps 741 mmHg 60%
    12:00 +35°C° 1.2 mm 1 mps 740 mmHg 62%
    13:00 +35°C° 1.2 mm 1 mps 739 mmHg 63%
    14:00 +34°C° 1.9 mm 1 mps 739 mmHg 67%
    15:00 +34°C° 1.9 mm 1 mps 738 mmHg 71%
    16:00 +33°C° 1.9 mm 1 mps 738 mmHg 75%
    17:00 +31°C° 0.6 mm 1 mps 738 mmHg 80%
    18:00 +28°C° 0.6 mm 0 mps 739 mmHg 85%
    19:00 +26°C° 0.6 mm 0 mps 739 mmHg 90%
    20:00 +26°C° 0 mm 0 mps 740 mmHg 91%
    21:00 +27°C° 0 mm 1 mps 740 mmHg 91%
    22:00 +27°C° 0 mm 1 mps 741 mmHg 92%
    23:00 +27°C° 0.1 mm 1 mps 741 mmHg 92%

    28 September, Friday

    Time Temperature Precipitation Wind Pressure Humidity
    00:00 +26°C° 0.1 mm 1 mps 740 mmHg 93%
    01:00 +26°C° 0.1 mm 1 mps 740 mmHg 93%
    02:00 +26°C° 0.1 mm 1 mps 740 mmHg 93%
    03:00 +26°C° 0.1 mm 1 mps 740 mmHg 93%
    04:00 +26°C° 0.1 mm 1 mps 739 mmHg 93%
    05:00 +24°C° 0 mm 0 mps 740 mmHg 91%
    06:00 +25°C° 0 mm 0 mps 740 mmHg 89%
    07:00 +26°C° 0 mm 0 mps 741 mmHg 87%
    08:00 +28°C° 0 mm 0 mps 741 mmHg 75%
    09:00 +31°C° 0 mm 0 mps 741 mmHg 64%
    10:00 +34°C° 0 mm 0 mps 741 mmHg 52%
    11:00 +34°C° 0.4 mm 0 mps 740 mmHg 54%
    12:00 +36°C° 0.4 mm 1 mps 740 mmHg 56%
    13:00 +36°C° 0.4 mm 1 mps 739 mmHg 57%
    14:00 +35°C° 0.7 mm 1 mps 739 mmHg 61%
    15:00 +34°C° 0.7 mm 1 mps 738 mmHg 64%
    16:00 +34°C° 0.7 mm 1 mps 738 mmHg 68%
    17:00 +32°C° 0.5 mm 1 mps 738 mmHg 75%
    18:00 +30°C° 0.5 mm 1 mps 739 mmHg 82%
    19:00 +28°C° 0.5 mm 1 mps 739 mmHg 89%
    20:00 +28°C° 0.1 mm 1 mps 740 mmHg 90%
    21:00 +27°C° 0.1 mm 1 mps 740 mmHg 92%
    22:00 +27°C° 0.1 mm 1 mps 741 mmHg 93%
    23:00 +27°C° 0 mm 1 mps 741 mmHg 93%

    29 September, Saturday

    Time Temperature Precipitation Wind Pressure Humidity
    00:00 +26°C° 0 mm 1 mps 740 mmHg 94%
    01:00 +26°C° 0 mm 1 mps 740 mmHg 94%
    02:00 +26°C° 0.2 mm 1 mps 739 mmHg 94%
    03:00 +26°C° 0.2 mm 1 mps 739 mmHg 94%
    04:00 +25°C° 0.2 mm 1 mps 739 mmHg 94%
    05:00 +26°C° 0.2 mm 1 mps 739 mmHg 92%
    06:00 +25°C° 0.2 mm 0 mps 740 mmHg 90%
    07:00 +25°C° 0.2 mm 0 mps 741 mmHg 88%
    08:00 +28°C° 0.1 mm 0 mps 741 mmHg 76%
    09:00 +31°C° 0.1 mm 0 mps 741 mmHg 65%
    10:00 +34°C° 0.1 mm 0 mps 741 mmHg 54%
    11:00 +34°C° 0.5 mm 0 mps 740 mmHg 55%
    12:00 +36°C° 0.5 mm 1 mps 739 mmHg 56%
    13:00 +36°C° 0.5 mm 1 mps 739 mmHg 57%
    14:00 +35°C° 1.2 mm 1 mps 738 mmHg 63%
    15:00 +34°C° 1.2 mm 1 mps 738 mmHg 70%
    16:00 +32°C° 1.2 mm 1 mps 738 mmHg 76%
    17:00 +31°C° 0.4 mm 1 mps 738 mmHg 81%
    18:00 +29°C° 0.4 mm 1 mps 739 mmHg 85%
    19:00 +28°C° 0.4 mm 1 mps 739 mmHg 89%
    20:00 +27°C° 0.5 mm 1 mps 740 mmHg 90%
    21:00 +27°C° 0.5 mm 1 mps 740 mmHg 91%
    22:00 +27°C° 0.5 mm 1 mps 741 mmHg 92%
    23:00 +26°C° 0.1 mm 1 mps 740 mmHg 93%

    30 September, Sunday

    Time Temperature Precipitation Wind Pressure Humidity
    00:00 +26°C° 0.1 mm 1 mps 740 mmHg 94%
    01:00 +26°C° 0.1 mm 1 mps 740 mmHg 94%
    02:00 +26°C° 0.5 mm 1 mps 739 mmHg 95%
    03:00 +26°C° 0.5 mm 1 mps 739 mmHg 95%
    04:00 +25°C° 0.5 mm 1 mps 739 mmHg 95%
    05:00 +24°C° 0.1 mm 0 mps 740 mmHg 93%
    06:00 +25°C° 0.1 mm 0 mps 740 mmHg 92%
    07:00 +25°C° 0.1 mm 0 mps 741 mmHg 90%
    08:00 +27°C° 0.9 mm 0 mps 741 mmHg 84%
    09:00 +29°C° 0.9 mm 0 mps 741 mmHg 78%
    10:00 +31°C° 0.9 mm 0 mps 741 mmHg 71%
    11:00 +33°C° 1.4 mm 1 mps 740 mmHg 74%
    12:00 +33°C° 1.4 mm 1 mps 739 mmHg 77%
    13:00 +33°C° 1.4 mm 1 mps 738 mmHg 80%
    14:00 +32°C° 1.6 mm 1 mps 738 mmHg 82%
    15:00 +31°C° 1.6 mm 1 mps 738 mmHg 83%
    16:00 +30°C° 1.6 mm 1 mps 738 mmHg 85%
    17:00 +29°C° 0.6 mm 1 mps 739 mmHg 87%
    18:00 +28°C° 0.6 mm 1 mps 739 mmHg 90%
    19:00 +27°C° 0.6 mm 1 mps 740 mmHg 92%
    20:00 +27°C° 0.3 mm 1 mps 740 mmHg 93%
    21:00 +27°C° 0.3 mm 1 mps 741 mmHg 94%
    22:00 +26°C° 0.3 mm 1 mps 741 mmHg 95%
    23:00 +24°C° 0.4 mm 0 mps 741 mmHg 96%
    Show more